Погода в Эль-Хубаре

Саудовская Аравия     26°17′32″N   50°12′52″E
темп.,
°C
ветер,
м/с
пор.,
м/с
влажн.,
%
обл.,
%
осадки,
мм/ч
давл.,
гПа
погр.,
м
19 июня, сб
сб1900:00+31сз45450 0.0 100057
03:00+31сз714350 0.0 1000207
06:00+31сз815350 0.0 1002257
09:00+33ссз1013410 0.0 1002363
12:00+34с1013440 0.0 1002366
15:00+32с812560 0.0 1001312
18:00+32с58550 0.0 1000149
21:00+31ссз45560 0.0 100153
20 июня, вс
вс2000:00+30ссв22650 0.0 100116
03:00+31сз58530 0.0 1001107
06:00+31ссз816600 0.0 1002273
09:00+33с913520 0.0 1003291
12:00+32с710630 0.0 1003275
15:00+32с810600 0.0 1002245
18:00+32с68580 0.0 1001129
21:00+32сз44450 0.0 100137
21 июня, пн
пн2100:00+30всв33650 0.0 100123
03:00+31зсз55510 0.0 100150
06:00+31зсз56330 0.0 100274
09:00+33с68560 0.0 1002233
12:00+33с811580 0.0 1001282
15:00+33с810590 0.0 1000218
18:00+32с68550 0.0 1000104
21:00+33сз55390 0.0 100043
22 июня, вт
вт2200:00+31вюв33660 0.0 100022
03:00+31з33520 0.0 100018
06:00+31з33380 0.0 100123
09:00+35ссз22350 0.0 1002121
12:00+33в55360 0.0 1001162
15:00+33всв55480 0.0 1000134
18:00+32всв33590 0.0 100033
21:00+32ююв12540 0.0 100111
23 июня, ср
ср2300:00+30вюв68730 0.0 1001116
03:00+30зюз11710 0.0 100111
06:00+31ю22640 0.0 100312
09:00+32ююв44540 0.0 1003140
12:00+33юв44480 0.0 1003218
15:00+33всв66540 0.0 1001181
18:00+32в68670 0.0 100192
21:00+32вюв56620 0.0 100258